When you browse on this site, cookies collect data to enhance your experience and personalize the content and advertising you see.
Visit our Privacy Policy to learn more. By continuing to use the site, you agree to this use of cookies and data.
  • en France
  • Liste des pays
  • À 7 jours
  • Température de l'eau
  • Carte satellitaire
  • Carte météo
  • Widgets météo
  • user-avatar
    Se connecter

    Météo par heure à Etchmiadzin

    Ce jour, 23 Juillet, Mardi

    Heure Température Précipitation Vent Pression Humidité
    00:00 +28°C° 0 mm 4 m/s 684 mmHg 54%
    01:00 +27°C° 0 mm 3 m/s 684 mmHg 56%
    02:00 +27°C° 0 mm 3 m/s 684 mmHg 57%
    03:00 +26°C° 0 mm 3 m/s 683 mmHg 58%
    04:00 +26°C° 0 mm 3 m/s 684 mmHg 58%
    05:00 +27°C° 0 mm 3 m/s 684 mmHg 57%
    06:00 +27°C° 0 mm 2 m/s 684 mmHg 56%
    07:00 +29°C° 0 mm 2 m/s 684 mmHg 51%
    08:00 +31°C° 0 mm 2 m/s 684 mmHg 45%
    09:00 +34°C° 0 mm 2 m/s 684 mmHg 40%
    10:00 +35°C° 0 mm 2 m/s 684 mmHg 35%
    11:00 +37°C° 0 mm 2 m/s 684 mmHg 31%
    12:00 +39°C° 0 mm 3 m/s 684 mmHg 27%
    13:00 +41°C° 0 mm 4 m/s 684 mmHg 25%
    14:00 +42°C° 0 mm 4 m/s 683 mmHg 24%
    15:00 +43°C° 0 mm 5 m/s 683 mmHg 22%
    16:00 +41°C° 0 mm 6 m/s 683 mmHg 25%
    17:00 +40°C° 0 mm 7 m/s 683 mmHg 27%
    18:00 +39°C° 0 mm 8 m/s 683 mmHg 30%
    19:00 +36°C° 0 mm 6 m/s 683 mmHg 35%
    20:00 +34°C° 0 mm 5 m/s 683 mmHg 41%
    21:00 +30°C° 0 mm 4 m/s 683 mmHg 47%
    22:00 +29°C° 0 mm 4 m/s 683 mmHg 50%
    23:00 +28°C° 0 mm 4 m/s 683 mmHg 54%

    Demain, 24 Juillet, Mercredi

    Heure Température Précipitation Vent Pression Humidité
    00:00 +26°C° 0 mm 3 m/s 683 mmHg 57%
    01:00 +26°C° 0 mm 3 m/s 682 mmHg 59%
    02:00 +25°C° 0 mm 2 m/s 682 mmHg 61%
    03:00 +25°C° 0 mm 2 m/s 682 mmHg 62%
    04:00 +25°C° 0 mm 2 m/s 682 mmHg 60%
    05:00 +26°C° 0 mm 2 m/s 682 mmHg 58%
    06:00 +26°C° 0 mm 2 m/s 683 mmHg 56%
    07:00 +28°C° 0 mm 2 m/s 683 mmHg 50%
    08:00 +30°C° 0 mm 2 m/s 683 mmHg 44%
    09:00 +32°C° 0 mm 2 m/s 683 mmHg 38%
    10:00 +35°C° 0 mm 2 m/s 683 mmHg 33%
    11:00 +37°C° 0 mm 2 m/s 683 mmHg 27%
    12:00 +39°C° 0 mm 2 m/s 684 mmHg 22%
    13:00 +39°C° 0 mm 2 m/s 683 mmHg 20%
    14:00 +40°C° 0 mm 2 m/s 683 mmHg 18%
    15:00 +41°C° 0 mm 2 m/s 683 mmHg 16%
    16:00 +41°C° 0 mm 2 m/s 683 mmHg 17%
    17:00 +40°C° 0 mm 2 m/s 683 mmHg 17%
    18:00 +40°C° 0 mm 2 m/s 683 mmHg 18%
    19:00 +37°C° 0 mm 2 m/s 683 mmHg 24%
    20:00 +34°C° 0 mm 2 m/s 683 mmHg 29%
    21:00 +30°C° 0 mm 2 m/s 683 mmHg 34%
    22:00 +28°C° 0 mm 2 m/s 683 mmHg 38%
    23:00 +27°C° 0 mm 2 m/s 683 mmHg 42%

    Après-demain, 25 Juillet, Jeudi

    Heure Température Précipitation Vent Pression Humidité
    00:00 +25°C° 0 mm 2 m/s 683 mmHg 45%
    01:00 +25°C° 0 mm 2 m/s 683 mmHg 48%
    02:00 +24°C° 0 mm 2 m/s 683 mmHg 50%
    03:00 +23°C° 0 mm 1 m/s 683 mmHg 52%
    04:00 +24°C° 0 mm 1 m/s 683 mmHg 49%
    05:00 +25°C° 0 mm 1 m/s 684 mmHg 46%
    06:00 +25°C° 0 mm 1 m/s 684 mmHg 42%
    07:00 +28°C° 0 mm 1 m/s 684 mmHg 35%
    08:00 +31°C° 0 mm 2 m/s 685 mmHg 28%
    09:00 +34°C° 0 mm 2 m/s 685 mmHg 21%
    10:00 +36°C° 0 mm 3 m/s 685 mmHg 17%
    11:00 +37°C° 0 mm 3 m/s 685 mmHg 14%
    12:00 +39°C° 0 mm 3 m/s 685 mmHg 11%
    13:00 +39°C° 0 mm 3 m/s 685 mmHg 10%
    14:00 +40°C° 0 mm 3 m/s 685 mmHg 8%
    15:00 +42°C° 0 mm 3 m/s 684 mmHg 7%
    16:00 +42°C° 0 mm 4 m/s 684 mmHg 8%
    17:00 +41°C° 0 mm 5 m/s 684 mmHg 8%
    18:00 +41°C° 0 mm 7 m/s 684 mmHg 9%
    19:00 +36°C° 0 mm 6 m/s 684 mmHg 15%
    20:00 +33°C° 0 mm 5 m/s 684 mmHg 22%
    21:00 +29°C° 0 mm 4 m/s 684 mmHg 28%
    22:00 +27°C° 0 mm 4 m/s 684 mmHg 34%
    23:00 +26°C° 0 mm 4 m/s 684 mmHg 41%

    26 Juillet, Vendredi

    Heure Température Précipitation Vent Pression Humidité
    00:00 +25°C° 0 mm 4 m/s 684 mmHg 47%
    01:00 +24°C° 0 mm 3 m/s 684 mmHg 50%
    02:00 +22°C° 0 mm 3 m/s 684 mmHg 52%
    03:00 +22°C° 0 mm 3 m/s 684 mmHg 55%
    04:00 +22°C° 0 mm 3 m/s 684 mmHg 54%
    05:00 +24°C° 0 mm 2 m/s 685 mmHg 53%
    06:00 +24°C° 0 mm 2 m/s 685 mmHg 52%
    07:00 +26°C° 0 mm 2 m/s 685 mmHg 47%
    08:00 +28°C° 0 mm 3 m/s 685 mmHg 41%
    09:00 +30°C° 0 mm 3 m/s 685 mmHg 36%
    10:00 +33°C° 0 mm 3 m/s 685 mmHg 30%
    11:00 +35°C° 0 mm 3 m/s 685 mmHg 25%
    12:00 +37°C° 0 mm 3 m/s 685 mmHg 20%
    13:00 +38°C° 0 mm 2 m/s 685 mmHg 18%
    14:00 +38°C° 0 mm 2 m/s 685 mmHg 17%
    15:00 +39°C° 0 mm 2 m/s 684 mmHg 15%
    16:00 +38°C° 0 mm 3 m/s 684 mmHg 19%
    17:00 +37°C° 0 mm 4 m/s 684 mmHg 23%
    18:00 +36°C° 0 mm 5 m/s 684 mmHg 26%
    19:00 +33°C° 0 mm 4 m/s 684 mmHg 33%
    20:00 +30°C° 0 mm 4 m/s 684 mmHg 40%
    21:00 +27°C° 0 mm 4 m/s 684 mmHg 47%
    22:00 +26°C° 0 mm 3 m/s 684 mmHg 49%
    23:00 +25°C° 0 mm 3 m/s 684 mmHg 50%

    27 Juillet, Samedi

    Heure Température Précipitation Vent Pression Humidité
    00:00 +25°C° 0 mm 3 m/s 684 mmHg 52%
    01:00 +24°C° 0 mm 3 m/s 684 mmHg 54%
    02:00 +23°C° 0 mm 2 m/s 683 mmHg 56%
    03:00 +23°C° 0 mm 2 m/s 683 mmHg 58%
    04:00 +23°C° 0 mm 2 m/s 683 mmHg 56%
    05:00 +23°C° 0 mm 2 m/s 683 mmHg 55%
    06:00 +24°C° 0 mm 2 m/s 683 mmHg 53%
    07:00 +26°C° 0 mm 2 m/s 684 mmHg 48%
    08:00 +28°C° 0 mm 1 m/s 684 mmHg 42%
    09:00 +30°C° 0 mm 1 m/s 684 mmHg 36%
    10:00 +32°C° 0 mm 1 m/s 684 mmHg 33%
    11:00 +34°C° 0 mm 1 m/s 683 mmHg 30%
    12:00 +36°C° 0 mm 2 m/s 683 mmHg 27%
    13:00 +37°C° 0 mm 2 m/s 683 mmHg 24%
    14:00 +38°C° 0 mm 2 m/s 683 mmHg 22%
    15:00 +39°C° 0 mm 2 m/s 682 mmHg 20%
    16:00 +38°C° 0 mm 3 m/s 682 mmHg 24%
    17:00 +37°C° 0 mm 4 m/s 682 mmHg 28%
    18:00 +36°C° 0 mm 4 m/s 681 mmHg 31%
    19:00 +33°C° 0 mm 4 m/s 681 mmHg 38%
    20:00 +29°C° 0 mm 4 m/s 681 mmHg 45%
    21:00 +27°C° 0 mm 4 m/s 681 mmHg 52%
    22:00 +26°C° 0 mm 4 m/s 681 mmHg 55%
    23:00 +25°C° 0 mm 3 m/s 681 mmHg 57%

    28 Juillet, Dimanche

    Heure Température Précipitation Vent Pression Humidité
    00:00 +24°C° 0 mm 3 m/s 681 mmHg 59%
    01:00 +24°C° 0 mm 3 m/s 681 mmHg 61%
    02:00 +23°C° 0 mm 2 m/s 680 mmHg 63%
    03:00 +23°C° 0 mm 2 m/s 680 mmHg 65%
    04:00 +23°C° 0 mm 2 m/s 681 mmHg 63%
    05:00 +23°C° 0 mm 2 m/s 681 mmHg 61%
    06:00 +24°C° 0 mm 2 m/s 681 mmHg 59%
    07:00 +26°C° 0 mm 2 m/s 681 mmHg 53%
    08:00 +28°C° 0 mm 1 m/s 681 mmHg 47%
    09:00 +30°C° 0 mm 1 m/s 682 mmHg 41%
    10:00 +32°C° 0 mm 1 m/s 682 mmHg 36%
    11:00 +34°C° 0 mm 1 m/s 681 mmHg 32%
    12:00 +36°C° 0 mm 1 m/s 681 mmHg 28%
    13:00 +37°C° 0 mm 1 m/s 681 mmHg 25%
    14:00 +39°C° 0 mm 2 m/s 681 mmHg 22%
    15:00 +40°C° 0 mm 2 m/s 681 mmHg 20%
    16:00 +38°C° 0.1 mm 3 m/s 680 mmHg 23%
    17:00 +37°C° 0.1 mm 4 m/s 680 mmHg 27%
    18:00 +36°C° 0.1 mm 5 m/s 680 mmHg 31%
    19:00 +33°C° 0.1 mm 5 m/s 680 mmHg 38%
    20:00 +30°C° 0.1 mm 4 m/s 680 mmHg 45%
    21:00 +27°C° 0.1 mm 3 m/s 681 mmHg 52%
    22:00 +26°C° 0.2 mm 3 m/s 680 mmHg 55%
    23:00 +25°C° 0.2 mm 2 m/s 680 mmHg 57%
    Voir plus